(152755) = 1999 GC16 = 2003 EL25

Discovered at Socorro on 1999-04-09 by LINEAR.

Orbit

Orbit type: Main Belt

Note: WebGL enabled browser required.

epoch2024-03-31.0
epoch JD2460400.5
perihelion date2020-03-17.51355
perihelion JD2458926.01355
argument of perihelion (°)206.59768
ascending node (°)19.37478
inclination (°)9.14110
eccentricity0.1696746
perihelion distance (AU)2.1413071
Tisserand w.r.t. Jupiter3.4
ΔV w.r.t. Earth (km/sec)9.6
semimajor axis (AU)2.5788771
mean anomaly (°)350.91235
mean daily motion (°/day)0.23798950
aphelion distance (AU)3.016
period (years)4.14
P-vector [x]-0.69689030
P-vector [y]-0.62646047
P-vector [z]-0.34912918
Q-vector [x]0.71523861
Q-vector [y]-0.57131910
Q-vector [z]-0.40252728
absolute magnitude16.24
phase slope0.15
uncertainty0
referenceMPEC 2024-F50
observations used334
oppositions17
arc length (days)9129
first opposition used1999
last opposition used2024
residual rms (arc-secs)0.74
perturbers coarse indicatorM-v
perturbers precise indicator003Ek
first observation date used1999-03-22.0
last observation date used2024-03-19.0
computer nameMPCLINUX
JD of orbit computation2456937.220365
perihelion JD uncertainty (days)2.4698E-04
argument of perihelion uncertainty (°)6.8065E-05
ascending node uncertainty (°)5.0393E-05
inclination uncertainty (°)1.2080E-05
eccentricity uncertainty 9.2294E-08
perihelion distance uncertainty (AU)2.4459E-07
Minimum Orbit Intersection Distances (in AU)
for orbit epoch: 2460400.5, reference: E2024-GD4
Mercury1.68749
Venus1.42323
Earth1.13711
Mars0.5536
Jupiter1.97511
Saturn6.14345
Uranus16.0275
Neptune26.8245

Observations

347 total observations over interval: 1999 03 22.44905 – 2024 03 19.629690
These data are available for download (format description).

Date (UT) J2000 RA J2000 Dec Magn Location Ref
1999 03 22.44905 13 19 53.46 -06 02 46.7 18.2 R 699 – Lowell Observatory-LONEOS MPS 81345
1999 03 22.46948 13 19 52.54 -06 02 46.7   699 – Lowell Observatory-LONEOS MPS 81345
1999 03 22.48987 13 19 51.43 -06 02 47.3   699 – Lowell Observatory-LONEOS MPS 81345
1999 03 23.31647 13 19 11.14 -06 03 10.7 18.7 R 703 – Catalina Sky Survey MPS 4882
1999 03 23.33271 13 19 10.24 -06 03 10.8 18.7 R 703 – Catalina Sky Survey MPS 4882
1999 03 23.34958 13 19 09.36 -06 03 11.4 18.2 R 703 – Catalina Sky Survey MPS 4882
1999 03 23.36556 13 19 08.76 -06 03 11.6 18.3 R 703 – Catalina Sky Survey MPS 4882
1999 04 07.16606 13 05 05.44 -06 04 30.0 18.8   704 – Lincoln Laboratory ETS, New Mexico MPS 4882
1999 04 07.17972 13 05 04.53 -06 04 27.5 19.2   704 – Lincoln Laboratory ETS, New Mexico MPS 4882
1999 04 07.19392 13 05 03.77 -06 04 30.0 19.1   704 – Lincoln Laboratory ETS, New Mexico MPS 4882
1999 04 07.20805 13 05 02.72 -06 04 28.3 18.0   704 – Lincoln Laboratory ETS, New Mexico MPS 4882
1999 04 07.22215 13 05 01.90 -06 04 28.9 18.2   704 – Lincoln Laboratory ETS, New Mexico MPS 4882
1999 04 07.32657 13 04 55.23 -06 04 27.3 18.3 R 699 – Lowell Observatory-LONEOS MPS 4882
1999 04 07.34185 13 04 54.35 -06 04 26.2   699 – Lowell Observatory-LONEOS MPS 4882
1999 04 07.35714 13 04 53.38 -06 04 28.5   699 – Lowell Observatory-LONEOS MPS 4882
1999 04 09.21983 13 02 58.83 -06 04 16.9 19.1   704 – Lincoln Laboratory ETS, New Mexico MPS 4582
1999 04 09.23890 13 02 57.71 -06 04 17.6 18.8   704 – Lincoln Laboratory ETS, New Mexico MPS 4582
1999 04 09.25786 13 02 56.43 -06 04 15.7 19.3   704 – Lincoln Laboratory ETS, New Mexico MPS 4582
1999 04 09.29595 13 02 54.02 -06 04 15.5 19.1   704 – Lincoln Laboratory ETS, New Mexico MPS 4582
1999 04 09.31477 13 02 52.84 -06 04 17.5 18.9   704 – Lincoln Laboratory ETS, New Mexico MPS 4582
1999 04 09.33383 13 02 51.65 -06 04 16.9 18.9   704 – Lincoln Laboratory ETS, New Mexico MPS 4582
1999 04 09.35283 13 02 50.31 -06 04 16.9 19.4   704 – Lincoln Laboratory ETS, New Mexico MPS 4582
1999 04 09.37175 13 02 49.36 -06 04 16.7 19.4   704 – Lincoln Laboratory ETS, New Mexico MPS 4582
1999 04 09.39070 13 02 47.82 -06 04 16.5 19.6   704 – Lincoln Laboratory ETS, New Mexico MPS 4582
1999 04 10.21860 13 01 57.39 -06 04 13.9 18.9   704 – Lincoln Laboratory ETS, New Mexico MPS 4582
1999 04 10.23781 13 01 56.14 -06 04 12.6 18.9   704 – Lincoln Laboratory ETS, New Mexico MPS 4582
1999 04 10.25701 13 01 54.92 -06 04 12.8 18.9   704 – Lincoln Laboratory ETS, New Mexico MPS 4582
1999 04 10.27630 13 01 53.64 -06 04 15.5 19.7   704 – Lincoln Laboratory ETS, New Mexico MPS 4582
1999 04 12.22170 12 59 54.46 -06 04 08.2 18.7   704 – Lincoln Laboratory ETS, New Mexico MPS 4882
1999 04 12.23894 12 59 53.26 -06 04 09.4 19.2   704 – Lincoln Laboratory ETS, New Mexico MPS 4882
1999 04 12.25600 12 59 52.30 -06 04 09.7 19.2   704 – Lincoln Laboratory ETS, New Mexico MPS 4882
1999 04 12.27316 12 59 51.16 -06 04 09.8 18.8   704 – Lincoln Laboratory ETS, New Mexico MPS 4882
1999 04 12.29035 12 59 50.23 -06 04 11.5 19.1   704 – Lincoln Laboratory ETS, New Mexico MPS 4882
2000 09 23.25456 23 17 44.62 -12 00 37.1 20.5 V 691 – Steward Observatory, Kitt Peak-Spacewatch MPS 112056
2000 09 23.27588 23 17 43.46 -12 00 39.0 20.9 V 691 – Steward Observatory, Kitt Peak-Spacewatch MPS 112056
2000 09 23.29731 23 17 42.26 -12 00 41.5 21.1 V 691 – Steward Observatory, Kitt Peak-Spacewatch MPS 112056
2003 02 12.51234 12 12 02.97 +07 46 42.5 20.7   608 – Haleakala-AMOS MPS 81345
2003 02 12.52291 12 12 02.69 +07 46 43.7 20.6   608 – Haleakala-AMOS MPS 81345
2003 02 12.53342 12 12 02.45 +07 46 44.1 20.8   608 – Haleakala-AMOS MPS 81345
2003 03 06.36038 11 57 32.35 +08 33 44.8 18.5 R 699 – Lowell Observatory-LONEOS MPS 74454
2003 03 06.37520 11 57 31.45 +08 33 47.0   699 – Lowell Observatory-LONEOS MPS 74454
2003 03 06.39008 11 57 30.65 +08 33 49.5   699 – Lowell Observatory-LONEOS MPS 74454
2003 03 06.40492 11 57 29.81 +08 33 53.0   699 – Lowell Observatory-LONEOS MPS 74454
2003 03 07.39410 11 56 34.67 +08 36 14.8 18.3 R 699 – Lowell Observatory-LONEOS MPS 74454
2003 03 07.41032 11 56 33.69 +08 36 17.1   699 – Lowell Observatory-LONEOS MPS 74454
2003 03 07.42656 11 56 32.75 +08 36 19.2   699 – Lowell Observatory-LONEOS MPS 74454
2003 03 07.44273 11 56 31.81 +08 36 21.4   699 – Lowell Observatory-LONEOS MPS 74454
2003 03 11.26197 11 52 51.37 +08 45 11.1 18.5   644 – Palomar Mountain/NEAT MPS 74454
2003 03 11.32917 11 52 47.23 +08 45 20.3 18.6   644 – Palomar Mountain/NEAT MPS 74454
2003 03 11.39154 11 52 43.40 +08 45 28.5 18.5   644 – Palomar Mountain/NEAT MPS 74454
2003 03 15.36489 11 48 44.09 +08 53 39.0 19.6   608 – Haleakala-AMOS MPS 75617
2003 03 15.37572 11 48 43.41 +08 53 40.2 19.3   608 – Haleakala-AMOS MPS 75617
2003 03 15.38635 11 48 42.72 +08 53 41.7 19.4   608 – Haleakala-AMOS MPS 75617
2003 03 16.31221 11 47 46.24 +08 55 24.1 19.7   608 – Haleakala-AMOS MPS 75617
2003 03 16.32300 11 47 45.56 +08 55 25.5 20.0   608 – Haleakala-AMOS MPS 75617
2003 03 16.33381 11 47 44.89 +08 55 26.5 19.9   608 – Haleakala-AMOS MPS 75617
2003 03 26.27347 11 37 38.28 +09 07 32.5 18.8 R 699 – Lowell Observatory-LONEOS MPS 75617
2003 03 26.28960 11 37 37.17 +09 07 33.6   699 – Lowell Observatory-LONEOS MPS 75617
2003 03 26.30577 11 37 36.18 +09 07 34.1   699 – Lowell Observatory-LONEOS MPS 75617
2003 03 26.32189 11 37 35.21 +09 07 35.5   699 – Lowell Observatory-LONEOS MPS 75617
2003 03 30.23504 11 33 48.88 +09 08 35.0 18.7   704 – Lincoln Laboratory ETS, New Mexico MPS 75617
2003 03 30.24713 11 33 48.13 +09 08 35.0 19.0   704 – Lincoln Laboratory ETS, New Mexico MPS 75617
2003 03 30.25964 11 33 47.43 +09 08 34.4 19.2   704 – Lincoln Laboratory ETS, New Mexico MPS 75617
2003 03 30.27197 11 33 46.71 +09 08 34.7 19.0   704 – Lincoln Laboratory ETS, New Mexico MPS 75617
2003 03 30.28427 11 33 45.95 +09 08 35.2 19.1   704 – Lincoln Laboratory ETS, New Mexico MPS 75617
2003 04 05.15952 11 28 34.55 +09 05 15.1 19.0 R 699 – Lowell Observatory-LONEOS MPS 75617
2003 04 05.17740 11 28 33.50 +09 05 15.3   699 – Lowell Observatory-LONEOS MPS 75617
2003 04 05.19508 11 28 32.69 +09 05 13.7   699 – Lowell Observatory-LONEOS MPS 75617
2003 04 05.21289 11 28 31.84 +09 05 11.9   699 – Lowell Observatory-LONEOS MPS 75617
2003 04 25.16075 11 17 26.60 +08 08 05.0 19.1 R 699 – Lowell Observatory-LONEOS MPS 77817
2003 04 25.17505 11 17 26.43 +08 08 00.0   699 – Lowell Observatory-LONEOS MPS 77817
2003 04 25.18930 11 17 26.14 +08 07 56.4   699 – Lowell Observatory-LONEOS MPS 77817
2003 04 25.20351 11 17 25.86 +08 07 51.5   699 – Lowell Observatory-LONEOS MPS 77817
2003 04 26.20045 11 17 11.43 +08 03 15.0 19.0 C 704 – Lincoln Laboratory ETS, New Mexico MPS 291323
2003 04 26.21786 11 17 11.08 +08 03 09.5 19.3 C 704 – Lincoln Laboratory ETS, New Mexico MPS 291323
2003 04 26.24302 11 17 10.68 +08 03 00.9 18.8 C 704 – Lincoln Laboratory ETS, New Mexico MPS 291323
2003 05 01.20090 11 16 27.22 +07 37 32.0 19.3 C 704 – Lincoln Laboratory ETS, New Mexico MPS 291323
2003 05 01.21294 11 16 27.14 +07 37 29.2 19.7 C 704 – Lincoln Laboratory ETS, New Mexico MPS 291323
2003 05 01.22486 11 16 26.99 +07 37 23.4 18.8 C 704 – Lincoln Laboratory ETS, New Mexico MPS 291323
2003 05 01.23680 11 16 27.03 +07 37 20.2 18.9 C 704 – Lincoln Laboratory ETS, New Mexico MPS 291323
2004 08 21.65361 22 43 52.18 -19 47 10.2 19.1 R E12 – Siding Spring Survey MPS 112056
2004 08 21.65454 22 43 52.13 -19 47 09.5 19.6 R E12 – Siding Spring Survey MPS 112056
2004 08 21.66491 22 43 51.54 -19 47 12.1 19.3 R E12 – Siding Spring Survey MPS 112056
2004 08 21.66585 22 43 51.44 -19 47 12.6 19.2 R E12 – Siding Spring Survey MPS 112056
2004 08 21.67620 22 43 50.84 -19 47 12.8 18.4 R E12 – Siding Spring Survey MPS 112056
2004 08 21.67715 22 43 50.76 -19 47 14.9 19.5 R E12 – Siding Spring Survey MPS 112056
2004 08 21.68750 22 43 50.12 -19 47 16.9 19.5 R E12 – Siding Spring Survey MPS 112056
2004 08 21.68844 22 43 50.06 -19 47 17.2 19.5 R E12 – Siding Spring Survey MPS 112056
2007 01 27.25268 10 58 09.98 +19 09 00.3 20.3 V 703 – Catalina Sky Survey MPS 197962
2007 01 27.26106 10 58 09.73 +19 09 03.6 20.0 V 703 – Catalina Sky Survey MPS 197962
